sat.trackr.live / text

‹ back to catalog

STARLINK-3789

NORAD 52283 · 2022-041Y

PAYLOAD ACTIVE UNKNOWN

§ Identity

Operator
Country
US
Launch date
2022-04-21
Launch site
AFETR
Launch vehicle
Mass (kg)
RCS (m²)

Purposes: comms

External: N2YO · Heavens-Above · Gunter

§ Orbital elements

Epoch: 2026-05-25T02:31:23.224224Z

Period
95.44 min
Inclination
53.2141°
Eccentricity
0.0001316
Mean motion
15.08841174 rev/d
Perigee alt
538.8 km
Apogee alt
540.7 km
Semi-major
6,917.9 km
B*
-6.3349e-5
RAAN
126.0764°
Arg perigee
63.6375°
Mean anomaly
296.4752°
Rev number
22,590

§ Raw data

STARLINK-37891 52283U 22041Y   26145.10512991 -.00001296  00000+0 -63349-4 0  99932 52283  53.2141 126.0764 0001316  63.6375 296.4752 15.08841174225907

JSON: /api/v1/satellites/52283 · /tle

For live sub-satellite position, see the globe view (requires WebGL).

§ Visibility from observer

Set your observer location to see the next 7 days of passes ≥ 10°. The values pass through the URL so the page stays shareable.

No JS? Fill the form by hand. The geolocation button needs JavaScript.